FENGYUN 1C DEB, 30823

Orbit data source: Space-Track

FENGYUN 1C DEB, 30823 is space debris in SSO originally from a launch on Mon, 10 May 1999 UTC launched from the Taiyaun Space Center, China (TSC). Fengyun 1C debris stems from the Chinese weather satellite Fengyun-1C, which was intentionally destroyed by a Chinese anti-satellite missile in 2007. This event dramatically increased the amount of space debris, with thousands of trackable fragments posing hazards to satellites and human spaceflight. The Fengyun 1C debris cloud has become a focal point in discussions about space sustainability and the need for international regulations to prevent the creation of new debris.

Loading next visibility...
Identifier
30823, 1999-025AVH
Orbit
SSO
Country
Flag of CNCN / PRC
Related business
Manufacturer
Unknown
Mission
Spacecraft
Bus & Motor
Unknown
Mass
Unknown
Launch date (UTC)
1999-05-10 (27 years ago)
Launch vehicle
Unknown
Launch site
Taiyaun Space Center, China (TSC)
Object type
Payload
Rocket body
Debris
Shape & HBR
Unknown shape, 0.1 m
Radar Cross Section
Medium (>0.1 m² and <1 m²)

Expand to show TLE details & history
Last TLE update: 1 week ago

TLE from 1 week ago
0 FENGYUN 1C DEB
1 30823U 99025AVH 26202.18345171  .00000581  00000-0  37242-3 0  9998
2 30823  98.7942 340.3021 0133495 187.8084 298.8289 14.02807203991249
Epoch: 2026-07-21T04:24Z
TLE epoch observation values (Epoch: 2026-07-21T04:24:10.227Z)
Latitude
53.87327°
Longitude
167.47336°
Altitude
847.143 km
Speed
7.458 km/s
True Right ascension
11h 29m 53s
True Declination
53° 42' 41"
Sunlit
Object was in daylight at epoch
Visualization orbit readout
Latitude
Unknown
Longitude
Unknown
Altitude
Unknown
Speed
Unknown
Apparent Right ascension
Unknown
Apparent Declination
Unknown
Sunlit
N/A
Visualization observer readout
Local Sidereal Time
07:43:09
Azimuth
Unknown
Elevation
Unknown
Doppler factor
Unknown
Orbital elements
Apogee altitude
978.185 km
Perigee altitude
784.366 km
Semi-major axis
7,259.412 km
Eccentricity
0.01335
Inclination
98.7942°
RAAN
340.3021°
Arg. of periapsis
187.8084°
True anomaly
297.47801°
Mean anomaly
298.8289°
Eccentric anomaly
298.15453°
Mean motion
3.50906 °/min
Orbital period
102.59 mins
BSTAR
0.00037242
Loading maneuver chart data...
Computing Atmospheric mass density...
Loading historical data...
Loading historical data...
Loading historical data...
Loading historical data...
Loading historical data...
Loading historical data...
Loading historical data...

Documentation

Showing up to 5 results
|